Temperature
17 17 18 18 15 13 15 16 17 18 17 17 17 16 15 15 16 15 15 15 15 15 15 15 15 15 15 15 15 15 15 15 15 15 15 15 14 14 14 15 15 15 15 15 15 15 15 15 14
16 17 17 17 13 14 15 15 17 17 18 17 17 16 15 14 14 14 14 15 15 15 15 15 15 15 15 15 15 15 15 15 15 15 15 15 15 14 14 14 15 15 15 15 15 14 14 14 14
16 17 17 13 13 14 16 16 16 17 18 18 16 15 14 14 14 14 14 15 15 15 15 15 15 15 15 15 15 15 15 15 15 15 15 15 15 15 15 14 14 14 14 14 14 14 14 14 14
16 16 16 13 14 15 16 16 16 17 18 17 15 13 14 14 14 14 14 15 15 15 15 15 15 15 15 15 15 15 15 15 15 15 15 15 15 14 14 15 15 14 14 14 14 14 14 14 14
16 16 13 13 14 15 15 16 17 16 16 16 15 13 13 13 14 14 14 14 15 15 15 15 14 14 15 15 15 15 15 15 14 14 14 14 14 14 14 14 14 14 14 14 14 14 14 14 14
15 13 12 12 14 15 15 16 16 15 15 15 14 12 12 13 14 14 14 14 14 15 15 14 14 14 14 14 14 14 14 14 14 14 14 14 14 14 14 14 14 14 14 14 14 14 14 13 13
14 11 12 13 14 15 15 16 15 14 14 14 15 12 12 13 13 13 14 14 14 14 14 14 14 14 14 14 14 14 14 14 14 14 14 14 14 14 14 14 14 14 14 14 14 13 13 13 13
14 11 12 12 14 15 15 16 15 15 14 14 15 12 12 12 13 13 13 13 14 14 14 14 14 14 14 14 14 14 14 14 14 14 14 14 14 14 14 14 14 14 14 14 13 13 13 13 13
14 11 11 12 13 14 15 14 15 15 14 14 14 14 13 13 13 13 13 13 13 13 14 14 14 14 14 14 14 14 14 14 14 13 13 13 13 13 13 13 13 13 13 13 13 13 13 13 13
13 10 12 13 13 13 14 14 14 14 13 12 12 13 13 12 13 13 13 13 13 13 13 13 13 14 13 13 13 13 13 13 13 13 13 13 13 13 13 13 13 13 13 13 13 13 13 13 13
11 10 12 13 14 14 13 13 14 13 12 12 12 13 12 12 12 13 13 13 13 13 13 13 13 13 13 13 13 13 13 13 13 13 13 13 13 13 13 13 13 13 13 13 12 12 13 13 12
11 11 12 13 14 13 13 13 12 12 13 13 13 13 13 12 12 12 12 12 12 12 12 12 12 13 13 13 13 13 13 13 13 13 12 12 12 12 12 12 12 12 12 12 12 12 12 12 12
10 11 12 12 13 13 12 12 12 12 13 13 13 12 12 12 12 12 12 12 12 12 12 12 12 12 12 12 12 12 12 12 12 12 12 12 12 12 12 12 12 12 12 12 12 12 12 12 12
10 11 11 12 12 12 11 11 11 11 12 12 12 12 12 12 12 11 11 12 12 12 12 12 12 12 12 12 12 12 12 12 12 12 12 11 11 11 11 11 11 11 11 11 11 11 11 11 11
11 10 10 11 11 11 11 10 10 11 11 11 11 11 11 11 11 11 11 11 11 11 11 11 11 11 11 11 11 11 11 11 11 11 11 11 11 11 11 11 11 11 11 11 11 11 11 11 11
10 9 9 10 10 11 11 10 10 11 11 10 10 11 11 11 11 11 11 11 11 11 11 11 11 11 11 11 11 11 11 11 11 10 10 10 10 10 10 10 10 10 10 10 10 10 10 10 11
9 8 9 9 10 10 9 9 9 10 10 10 10 10 10 10 10 10 10 11 11 11 11 10 10 10 10 10 10 10 10 10 10 10 10 10 10 10 10 10 10 10 10 10 10 10 10 10 10
8 8 8 9 9 9 8 8 8 10 10 9 9 10 10 10 10 10 10 10 10 10 10 10 10 10 10 10 10 10 9 9 9 9 9 9 9 9 9 9 9 9 9 9 9 9 9 9 10
8 8 8 8 9 9 8 8 8 8 8 8 9 9 9 9 9 9 9 9 9 9 10 9 9 9 9 9 9 9 9 9 9 9 9 9 9 9 9 9 9 9 9 9 9 9 9 9 9
8 8 8 8 8 8 7 7 7 7 8 8 8 9 9 9 9 9 9 9 9 9 9 9 9 9 9 9 9 9 8 8 8 8 8 8 8 8 8 8 8 8 8 8 8 8 8 8 8
7 7 7 7 8 7 7 7 7 7 7 8 8 9 9 9 9 9 9 9 9 9 9 9 9 9 8 8 8 8 8 8 8 8 8 8 8 8 8 8 8 8 8 8 8 7 7 7 7
7 7 7 7 6 5 6 6 6 6 6 6 7 7 8 8 8 8 8 9 9 9 8 8 8 8 8 8 8 7 7 7 7 7 7 7 7 7 7 7 7 7 7 7 7 7 7 7 7
6 7 7 6 6 5 5 5 5 5 6 6 6 7 8 8 8 8 8 8 8 8 8 8 8 8 7 7 7 7 7 7 7 7 7 7 7 7 7 7 7 7 7 7 7 6 6 6 6
6 6 5 4 4 5 4 4 5 4 5 6 5 6 7 7 7 7 8 8 7 7 7 7 7 7 7 7 7 6 6 6 6 6 6 6 6 6 6 6 6 6 6 6 6 6 6 6 6
5 4 4 4 4 4 4 4 5 5 5 5 5 6 6 7 7 7 7 7 7 7 7 7 6 6 6 6 6 6 6 6 6 6 6 6 6 6 6 5 5 5 5 5 5 5 5 5 5
4 5 4 5 4 4 4 4 4 4 4 5 6 6 6 6 6 6 6 7 7 7 6 6 6 6 6 6 6 5 5 5 5 5 5 5 5 5 5 5 5 5 5 5 5 5 5 5 4
4 4 4 3 3 3 4 4 4 4 4 4 4 5 5 5 5 6 6 6 6 6 6 6 5 5 5 5 5 5 5 5 4 4 4 4 4 4 4 4 4 4 4 4 4 4 4 4 4
4 3 3 3 4 4 4 4 4 4 3 3 3 3 4 4 5 5 5 5 5 6 5 5 5 5 4 4 4 4 4 4 4 4 4 4 4 4 4 4 4 4 3 3 3 3 3 3 3
3 3 3 2 3 4 4 4 4 3 3 3 3 3 4 4 4 4 4 4 5 5 5 4 4 4 4 4 4 3 3 4 3 3 3 3 3 3 3 3 3 3 3 3 3 3 3 3 3
3 3 2 3 2 2 2 4 4 3 3 3 3 3 3 4 4 4 4 4 4 4 4 4 4 4 3 3 3 3 3 3 3 3 3 3 3 3 3 3 2 2 2 2 2 2 2 2 2
Wind_Speed
11 8 2 4 5 4 1 4 2 1 2 2 4 7 9 6 4 5 2 5 6 6 8 10 11 11 12 12 12 12 12 12 12 12 12 12 12 12 12 12 12 12 12 12 12 12 12 12 12
6 3 4 5 5 2 3 4 2 2 5 5 5 6 7 5 3 5 3 4 7 8 8 10 12 12 12 12 12 12 12 11 11 12 11 11 11 11 11 11 11 11 11 11 11 11 11 11 11
4 2 4 4 4 6 5 3 4 1 2 3 4 5 5 4 3 3 4 7 9 8 8 9 12 12 11 12 12 11 11 11 11 11 11 10 10 10 10 10 10 10 10 10 10 9 9 9 9
3 4 4 3 4 5 5 4 3 2 3 4 5 6 3 2 2 4 7 9 9 8 9 10 12 11 11 12 12 11 11 11 11 10 10 10 9 9 9 9 9 9 8 8 8 8 8 8 8
4 4 3 1 4 3 3 3 1 2 2 3 5 6 3 4 5 8 9 9 9 8 9 10 12 11 11 11 11 11 11 10 10 10 10 9 9 8 8 8 8 8 7 7 7 6 6 6 6
4 4 3 5 5 3 2 2 1 2 2 3 5 6 2 1 6 7 8 9 9 8 9 10 11 11 11 11 11 11 10 10 10 10 9 9 9 9 8 7 7 7 6 6 6 5 5 4 4
4 4 5 5 5 4 3 1 2 1 2 1 4 6 3 1 4 7 8 8 8 8 8 9 10 10 10 10 10 10 10 10 10 10 9 9 9 8 8 8 7 6 6 5 5 4 3 4 3
4 4 2 3 5 4 2 1 2 2 2 2 3 7 5 4 4 8 9 8 7 7 7 7 8 9 9 9 10 10 10 10 9 9 9 9 8 8 8 7 6 6 6 5 4 3 3 2 2
4 3 4 5 5 4 1 2 2 2 5 4 3 3 5 8 8 9 8 7 6 6 5 6 7 7 8 8 8 9 9 9 8 8 8 8 7 7 6 6 6 5 5 4 4 4 3 3 2
4 4 5 3 4 3 1 3 2 3 4 3 4 5 7 9 9 9 8 7 6 5 4 4 5 6 7 6 7 7 6 7 7 6 7 7 7 6 5 5 5 4 4 4 4 4 4 4 3
3 5 3 2 1 2 2 1 2 5 2 4 6 8 8 8 8 8 7 6 5 4 4 4 4 6 6 5 6 5 5 5 5 6 5 6 6 5 4 4 3 3 3 3 3 4 4 3 3
3 2 2 1 0 1 2 2 2 2 4 4 8 10 9 9 8 7 7 6 5 5 4 4 4 5 5 6 5 4 4 4 4 3 4 5 4 3 3 3 2 2 2 3 3 3 3 3 2
2 2 1 1 2 1 2 2 3 2 2 4 7 9 9 8 7 5 5 5 5 5 4 4 4 5 4 5 4 4 3 3 3 4 4 4 3 2 2 2 2 2 2 2 2 2 2 2 3
3 1 0 0 1 1 3 2 2 4 4 6 8 8 8 8 7 6 5 5 4 4 4 4 4 4 4 4 3 3 4 4 4 4 3 4 3 2 2 1 2 2 2 1 1 1 1 2 2
2 1 2 2 2 2 3 3 5 6 6 7 7 7 6 6 6 6 6 5 5 4 4 4 4 4 4 4 4 3 3 4 4 3 3 3 3 2 2 1 1 2 2 2 1 2 2 2 2
2 2 2 3 4 4 6 8 5 6 8 8 7 6 6 5 5 5 5 5 4 4 4 3 3 4 4 4 3 3 3 4 3 3 2 2 2 2 2 1 0 1 2 2 1 1 1 2 2
1 3 4 3 3 4 6 7 5 6 9 9 8 8 7 5 4 4 5 5 5 4 4 3 3 4 3 3 3 3 4 3 3 3 2 2 2 1 2 1 1 1 2 2 1 1 1 1 2
5 5 4 5 3 4 5 7 5 5 8 9 8 8 7 8 7 5 5 5 5 4 4 4 3 3 3 3 3 3 3 2 3 3 2 1 1 1 1 1 1 2 1 1 1 1 2 1 2
4 4 4 4 2 2 6 8 8 6 6 8 8 8 8 8 6 5 5 5 5 4 5 4 4 3 3 2 2 2 1 1 1 2 3 2 2 1 1 1 1 1 0 1 1 0 1 2 2
3 3 3 2 1 2 5 9 8 7 8 8 10 10 9 7 5 5 5 4 4 4 4 4 3 3 2 2 2 2 2 1 1 1 2 3 3 1 0 1 0 0 0 1 1 1 1 1 1
4 5 5 3 2 2 1 6 6 4 4 6 7 8 8 10 10 8 7 5 5 4 4 4 3 3 2 2 2 2 2 1 1 1 1 2 3 2 1 0 0 0 1 1 1 1 1 2 2
6 4 4 3 2 3 1 5 6 4 4 6 7 6 7 7 7 7 7 6 6 5 4 4 3 3 2 2 3 3 2 1 1 1 1 2 2 2 2 1 1 0 0 1 2 1 2 2 2
5 1 2 3 3 2 2 3 7 2 5 7 7 7 7 6 7 8 8 8 6 5 4 4 3 3 2 3 3 3 2 1 1 0 1 1 2 3 2 1 1 1 1 1 1 1 2 2 2
3 3 3 3 2 5 7 6 6 5 7 6 7 6 6 5 6 6 5 6 5 4 4 4 4 2 2 3 2 2 2 1 1 0 1 1 1 2 3 2 2 2 1 2 2 2 2 2 2
3 4 1 1 2 6 4 5 8 6 5 6 7 6 5 6 6 6 6 6 6 5 4 4 4 2 2 2 2 2 2 2 2 1 1 1 1 1 2 2 2 2 2 2 2 2 2 2 3
5 6 6 5 5 4 2 6 6 4 3 2 3 3 4 4 5 5 5 6 6 5 5 4 4 2 2 2 1 1 2 1 1 1 1 2 2 2 2 2 2 2 3 3 3 2 3 2 3
4 4 4 4 1 2 4 5 5 2 2 1 2 3 3 4 4 5 4 4 4 5 5 5 4 3 2 1 1 1 1 2 1 1 1 1 2 2 2 1 1 2 2 3 3 3 3 3 3
3 5 4 4 4 4 4 4 4 4 4 2 3 3 3 3 3 3 3 3 3 3 3 3 3 3 2 1 1 1 1 1 2 1 1 1 2 2 2 2 2 2 2 2 2 2 3 3 3
3 3 3 3 3 4 4 5 3 5 4 5 5 4 4 4 4 3 2 2 2 2 2 2 2 2 2 1 1 1 1 1 1 1 2 2 2 2 2 1 2 2 2 2 2 2 3 3 3
3 5 5 5 4 4 3 5 3 2 2 4 4 3 3 3 3 2 2 2 2 2 2 2 2 2 1 1 0 0 1 0 0 1 1 1 1 2 2 1 1 2 2 2 2 2 2 2 3
Wind_Direction
326 334 42 53 59 58 216 256 241 120 75 68 85 95 105 101 118 140 134 123 117 126 137 138 128 121 117 113 109 105 101 100 98 98 98 98 98 97 96 95 94 92 90 87 85 84 82 79 79
332 353 53 63 98 135 255 256 222 213 159 134 77 78 82 81 69 100 95 119 117 118 125 134 128 123 119 117 113 109 104 101 100 99 99 98 98 98 96 95 94 94 93 92 91 88 85 83 82
336 50 82 86 133 182 206 226 194 180 93 106 83 62 90 100 101 112 131 121 104 98 106 124 127 123 121 117 115 111 107 103 101 101 100 98 98 98 95 94 94 95 96 96 93 91 90 87 84
48 49 60 95 193 220 198 208 185 116 56 58 102 74 67 44 135 132 127 114 107 98 101 112 116 119 119 115 112 112 110 106 102 100 101 98 97 98 96 94 91 93 96 98 98 97 95 90 86
62 81 91 171 229 241 228 236 183 98 71 61 96 98 65 360 91 113 119 114 115 108 105 112 112 111 112 112 110 108 109 107 103 100 98 95 95 96 96 94 92 91 90 96 99 100 98 93 90
63 81 131 200 225 237 268 286 77 74 91 86 95 105 105 59 97 111 115 115 113 113 105 111 112 110 109 109 108 108 108 105 103 100 97 94 91 90 90 90 90 90 88 87 89 93 93 90 91
117 124 176 190 204 220 236 253 131 151 108 119 121 109 130 133 118 115 109 106 104 103 101 101 108 111 109 106 104 102 102 102 100 97 94 92 90 89 87 85 82 81 79 79 78 76 79 76 78
131 123 174 199 198 215 227 124 113 125 133 78 98 133 161 176 131 112 104 101 101 95 95 96 101 105 105 105 102 100 97 94 94 94 92 90 87 84 83 79 77 76 73 70 66 57 54 56 59
105 109 197 199 195 207 194 104 27 53 87 52 49 126 148 137 121 111 104 96 101 104 100 99 98 100 105 109 109 104 101 98 92 89 88 86 80 78 80 79 76 72 66 62 52 31 20 18 22
111 176 213 211 187 182 159 128 137 86 73 63 54 70 106 120 124 123 123 123 123 125 121 110 106 104 106 111 107 101 101 102 95 89 88 86 81 77 75 79 72 63 52 46 34 16 9 4 0
146 181 199 256 211 143 132 116 107 122 133 181 160 146 131 127 129 133 135 137 141 144 129 121 112 109 106 99 105 98 98 102 98 94 93 89 82 75 65 62 59 49 35 22 10 6 357 356 359
153 227 198 241 305 100 155 139 96 139 185 175 157 151 144 143 147 152 152 149 145 137 136 132 115 111 108 107 108 106 99 101 94 102 104 93 82 69 58 52 40 37 19 9 6 359 352 2 11
188 209 243 220 64 106 119 142 145 193 170 129 135 142 150 155 157 153 149 148 145 140 143 146 129 120 114 109 107 106 107 111 110 109 113 106 93 92 65 46 37 22 9 358 353 355 360 15 16
187 175 237 263 162 196 157 202 157 210 157 137 144 157 160 162 158 146 145 151 155 153 153 152 139 127 120 115 113 116 113 108 102 101 104 110 105 100 93 68 34 9 357 342 351 6 8 360 6
126 118 318 248 194 189 134 260 221 196 161 156 165 172 168 164 157 160 165 160 162 162 154 148 147 127 127 128 127 119 112 106 95 98 110 108 108 109 107 109 62 1 1 14 24 27 25 2 353
101 127 230 246 174 175 158 238 236 189 170 179 183 185 180 180 174 170 162 153 149 146 144 143 135 130 128 127 124 115 104 101 97 97 101 104 108 113 99 107 89 9 34 38 21 6 349 338 333
129 189 215 243 194 171 185 233 232 198 184 192 191 188 184 186 189 176 156 150 142 140 139 132 128 136 136 126 116 109 99 92 90 85 76 87 95 100 92 103 28 39 50 44 3 349 319 314 320
198 198 207 214 222 176 208 237 239 218 201 203 198 192 189 189 195 183 161 145 135 129 125 121 116 120 131 125 111 106 95 75 72 69 56 63 85 100 94 77 36 47 53 5 2 341 330 293 302
169 178 210 227 245 197 228 246 245 231 218 213 207 199 194 196 192 174 158 140 127 120 120 122 117 119 131 135 139 145 153 152 101 53 46 37 39 84 107 102 66 58 340 293 305 300 326 330 342
188 200 233 278 290 228 253 263 255 231 218 211 203 199 198 193 182 175 163 148 145 145 138 134 133 135 145 153 160 164 169 179 190 41 37 31 22 17 75 123 172 191 270 333 337 359 326 315 348
232 211 214 224 323 345 315 289 260 254 219 216 207 199 195 193 189 184 175 168 159 158 158 153 145 138 138 137 124 103 82 63 40 6 336 2 9 12 25 58 151 217 218 237 266 255 262 272 293
235 232 205 197 180 263 183 270 270 250 242 224 219 202 199 200 190 182 176 173 174 175 160 147 141 124 112 115 134 141 148 182 224 241 259 347 12 2 19 37 50 35 300 264 264 255 248 236 259
209 206 187 189 180 260 233 219 279 267 243 238 226 214 208 199 183 179 175 174 168 161 152 145 134 122 114 108 128 140 152 196 215 293 349 337 6 5 5 14 35 11 327 292 299 288 267 242 242
155 67 41 54 108 244 222 196 269 230 223 229 223 219 209 185 169 167 161 151 149 146 144 140 138 131 128 117 115 131 151 162 144 153 286 312 329 355 357 1 9 351 327 299 287 278 273 259 256
132 121 67 320 238 244 204 195 248 252 237 221 214 213 200 173 164 159 153 154 154 154 155 151 146 142 139 127 122 139 156 156 167 205 242 269 295 299 299 330 324 321 314 307 310 288 283 272 269
192 168 175 199 218 262 210 223 254 282 279 241 198 180 159 158 161 161 163 166 169 166 162 158 160 164 158 148 154 161 159 158 189 203 246 257 263 269 277 301 311 313 313 320 323 298 284 280 271
158 198 176 146 169 247 252 273 301 333 354 49 121 126 151 163 161 163 163 164 170 171 171 170 169 167 165 163 173 172 164 170 197 219 228 263 292 297 296 300 310 318 323 318 310 300 291 280 270
167 150 125 161 187 239 267 254 247 260 250 217 182 180 178 156 149 156 162 166 171 169 166 160 161 167 160 148 181 178 187 197 199 195 230 257 281 300 307 298 302 311 327 329 322 309 309 297 289
162 167 164 167 181 186 239 260 240 224 216 199 202 193 177 172 173 175 171 166 156 139 139 149 156 143 138 148 177 176 223 219 197 207 236 248 268 278 274 297 299 304 310 314 310 304 307 311 309
200 195 170 180 218 195 197 262 307 222 223 190 188 181 173 172 175 172 163 139 126 131 131 134 143 145 162 181 190 235 267 269 240 247 276 294 288 290 289 301 303 314 312 306 296 302 306 300 304
Height
1512 1513 1514 1515 1519 1529 1530 1523 1516 1514 1514 1515 1514 1515 1518 1523 1527 1534 1533 1532 1534 1536 1538 1539 1540 1541 1542 1543 1543 1544 1544 1545 1545 1545 1546 1546 1547 1547 1547 1547 1547 1547 1547 1547 1547 1547 1547 1547 1547
1512 1513 1515 1515 1525 1536 1530 1520 1516 1513 1513 1514 1515 1517 1519 1523 1526 1528 1529 1532 1534 1536 1537 1539 1540 1541 1542 1543 1544 1545 1545 1545 1546 1546 1547 1547 1547 1547 1548 1548 1548 1548 1548 1548 1548 1548 1548 1548 1548
1512 1513 1514 1517 1526 1530 1524 1516 1513 1511 1512 1513 1516 1518 1521 1524 1526 1528 1530 1532 1534 1536 1537 1539 1540 1542 1543 1543 1544 1545 1545 1546 1546 1547 1547 1547 1548 1548 1548 1548 1548 1548 1548 1548 1548 1549 1549 1549 1549
1512 1514 1515 1522 1523 1519 1516 1513 1511 1511 1512 1513 1516 1520 1523 1526 1527 1528 1530 1532 1534 1536 1537 1539 1540 1542 1543 1544 1544 1545 1546 1546 1547 1547 1548 1548 1548 1548 1549 1549 1549 1549 1549 1549 1549 1549 1549 1549 1549
1511 1512 1519 1525 1521 1515 1513 1512 1511 1511 1513 1515 1516 1521 1524 1527 1527 1529 1530 1532 1534 1535 1537 1539 1540 1541 1543 1544 1544 1545 1546 1546 1547 1547 1548 1548 1548 1549 1549 1549 1549 1549 1549 1549 1550 1550 1550 1550 1550
1511 1512 1524 1526 1519 1514 1513 1512 1512 1512 1514 1516 1517 1521 1525 1527 1527 1529 1531 1532 1534 1536 1537 1539 1540 1541 1543 1544 1544 1545 1546 1547 1547 1547 1548 1548 1548 1549 1549 1549 1549 1549 1549 1550 1550 1550 1550 1550 1550
1511 1515 1520 1519 1518 1515 1513 1512 1513 1513 1514 1516 1517 1521 1525 1527 1528 1529 1531 1533 1535 1536 1537 1538 1540 1541 1543 1544 1544 1545 1546 1546 1547 1547 1548 1548 1548 1549 1549 1549 1549 1549 1549 1549 1550 1550 1550 1550 1551
1509 1514 1517 1518 1516 1514 1512 1512 1513 1513 1515 1516 1517 1519 1523 1526 1527 1529 1531 1533 1534 1536 1537 1538 1539 1540 1542 1543 1544 1545 1545 1546 1547 1547 1547 1548 1548 1548 1549 1549 1549 1549 1549 1549 1549 1550 1550 1550 1550
1508 1516 1518 1515 1514 1512 1510 1511 1513 1514 1514 1516 1517 1518 1521 1524 1526 1528 1530 1532 1533 1535 1536 1537 1538 1540 1541 1542 1543 1544 1545 1545 1546 1546 1547 1547 1547 1548 1548 1548 1548 1548 1549 1549 1549 1549 1549 1550 1549
1507 1516 1513 1510 1509 1509 1510 1511 1512 1514 1515 1516 1517 1519 1521 1523 1525 1527 1528 1530 1531 1533 1535 1536 1537 1539 1540 1541 1542 1543 1544 1545 1545 1545 1545 1546 1546 1546 1547 1547 1548 1548 1548 1548 1548 1548 1548 1549 1548
1506 1510 1509 1508 1508 1508 1509 1511 1512 1513 1516 1516 1516 1518 1520 1522 1524 1526 1528 1529 1531 1532 1533 1535 1536 1538 1539 1540 1541 1542 1543 1543 1544 1544 1544 1544 1545 1545 1546 1546 1546 1547 1547 1547 1547 1547 1547 1547 1547
1506 1507 1507 1507 1507 1508 1509 1510 1512 1512 1513 1515 1516 1517 1519 1521 1523 1525 1526 1528 1530 1531 1532 1534 1535 1536 1537 1538 1539 1540 1541 1542 1542 1542 1542 1543 1543 1543 1544 1544 1544 1545 1545 1545 1545 1545 1545 1545 1545
1506 1507 1507 1507 1507 1508 1509 1510 1511 1512 1513 1514 1515 1517 1518 1520 1522 1525 1526 1528 1529 1530 1531 1533 1534 1535 1536 1537 1538 1539 1539 1540 1540 1540 1541 1541 1541 1542 1542 1542 1543 1543 1543 1543 1543 1544 1543 1543 1543
1505 1506 1506 1507 1507 1507 1509 1510 1511 1510 1512 1513 1515 1515 1517 1518 1521 1523 1525 1526 1527 1528 1530 1531 1533 1534 1535 1535 1536 1537 1537 1538 1538 1538 1539 1539 1540 1540 1540 1540 1541 1541 1541 1541 1541 1541 1541 1541 1541
1505 1507 1507 1506 1506 1507 1509 1510 1509 1509 1511 1512 1513 1514 1516 1517 1519 1520 1522 1524 1525 1527 1528 1530 1531 1532 1533 1534 1535 1535 1536 1536 1536 1536 1537 1538 1538 1538 1538 1538 1538 1538 1539 1539 1539 1539 1539 1539 1538
1505 1509 1511 1506 1506 1507 1511 1511 1507 1507 1509 1510 1511 1513 1514 1515 1517 1518 1520 1522 1523 1525 1526 1528 1529 1530 1531 1532 1533 1533 1534 1534 1534 1534 1535 1535 1536 1536 1536 1536 1536 1536 1536 1536 1536 1536 1536 1536 1536
1509 1512 1510 1507 1505 1506 1508 1508 1505 1505 1506 1507 1508 1510 1511 1513 1515 1516 1518 1519 1521 1522 1524 1525 1527 1528 1529 1530 1531 1531 1532 1532 1532 1532 1533 1533 1533 1533 1533 1533 1533 1533 1533 1533 1533 1533 1534 1533 1533
1510 1510 1508 1507 1504 1505 1507 1506 1504 1503 1504 1505 1506 1507 1509 1510 1511 1514 1515 1517 1519 1520 1522 1523 1524 1525 1527 1527 1528 1529 1529 1530 1530 1530 1530 1530 1531 1531 1531 1531 1531 1531 1531 1531 1531 1531 1531 1531 1530
1504 1506 1507 1506 1504 1505 1506 1504 1503 1502 1502 1502 1503 1504 1505 1507 1510 1511 1513 1514 1516 1518 1519 1520 1522 1523 1524 1524 1525 1526 1526 1527 1527 1527 1527 1527 1528 1528 1528 1528 1528 1528 1528 1528 1528 1528 1528 1528 1528
1503 1506 1507 1506 1504 1505 1506 1504 1500 1499 1498 1498 1499 1500 1502 1504 1506 1508 1510 1512 1513 1515 1517 1518 1519 1520 1521 1522 1523 1523 1524 1524 1525 1525 1525 1525 1525 1525 1525 1525 1525 1525 1525 1525 1525 1525 1525 1525 1525
1504 1506 1506 1507 1506 1506 1507 1504 1498 1495 1494 1496 1496 1497 1499 1500 1502 1504 1507 1509 1510 1512 1514 1516 1517 1518 1519 1520 1520 1521 1521 1521 1522 1522 1522 1522 1522 1522 1523 1523 1523 1522 1522 1522 1522 1522 1522 1521 1522
1505 1502 1503 1505 1510 1513 1510 1512 1499 1495 1493 1493 1493 1494 1495 1497 1498 1501 1503 1505 1507 1509 1511 1513 1514 1515 1516 1517 1518 1518 1518 1518 1519 1519 1519 1519 1519 1519 1519 1519 1519 1519 1519 1519 1519 1519 1519 1518 1518
1502 1501 1503 1505 1510 1514 1512 1514 1501 1495 1493 1491 1490 1490 1491 1493 1495 1497 1500 1502 1504 1507 1508 1510 1512 1513 1514 1514 1515 1515 1516 1516 1516 1516 1516 1516 1516 1516 1516 1516 1516 1516 1515 1515 1515 1515 1515 1515 1515
1500 1503 1506 1510 1514 1515 1510 1512 1502 1496 1489 1487 1487 1487 1488 1490 1492 1494 1497 1500 1502 1504 1506 1507 1509 1510 1511 1511 1512 1513 1513 1513 1514 1514 1514 1513 1513 1513 1512 1512 1512 1512 1512 1512 1512 1512 1511 1511 1511
1500 1508 1516 1515 1517 1510 1505 1506 1497 1487 1484 1483 1484 1484 1486 1488 1490 1492 1494 1496 1499 1501 1502 1504 1506 1507 1508 1509 1509 1510 1510 1511 1511 1511 1511 1511 1510 1509 1509 1509 1508 1508 1508 1508 1508 1508 1507 1507 1507
1500 1503 1510 1513 1514 1510 1505 1503 1492 1485 1482 1481 1482 1483 1485 1486 1488 1490 1492 1494 1496 1498 1500 1501 1503 1504 1505 1506 1506 1507 1508 1508 1508 1508 1508 1508 1507 1506 1506 1505 1505 1505 1505 1505 1504 1504 1503 1503 1503
1499 1502 1502 1510 1514 1511 1504 1498 1489 1483 1482 1481 1482 1482 1484 1485 1487 1489 1490 1492 1494 1495 1497 1498 1500 1501 1502 1503 1503 1504 1504 1504 1505 1504 1504 1504 1504 1503 1503 1502 1502 1502 1501 1501 1500 1500 1500 1499 1499
1496 1498 1505 1508 1508 1505 1500 1497 1492 1485 1483 1483 1482 1482 1483 1485 1487 1488 1489 1491 1492 1493 1495 1496 1497 1498 1499 1499 1500 1501 1501 1501 1501 1501 1501 1500 1500 1500 1499 1499 1498 1498 1497 1497 1497 1496 1496 1495 1494
1498 1499 1500 1505 1505 1504 1503 1495 1484 1482 1481 1481 1481 1482 1483 1484 1486 1487 1488 1489 1490 1491 1493 1493 1494 1495 1496 1497 1498 1498 1498 1498 1498 1497 1497 1497 1496 1496 1495 1495 1494 1494 1493 1493 1493 1492 1491 1491 1490
1494 1495 1498 1501 1504 1506 1505 1496 1481 1481 1480 1479 1480 1482 1483 1484 1485 1486 1487 1488 1489 1489 1490 1491 1492 1492 1493 1494 1494 1494 1494 1494 1494 1494 1494 1493 1493 1492 1492 1491 1490 1490 1490 1489 1488 1488 1487 1486 1486